Content
SEND FEEDBACK

Daily
Averages
Monthly
Summary
United States of America

MANGILAO, GUAM


Home > North America > United States > Guam
Elevation: 60 feet     Latitude: 13 27N     Longitude: 144 49E

WEATHER
 
SELECT A DAY
Number of Records: 351,895;   Date Range: 1/1/95 - 10/24/14
 
SHARE

PRINT THIS DATA

[ ← Previous Day ]
WEATHER ALMANAC - MARCH 30, 2013
[ Next Day → ]
[ °C ]   °F
Weather ElementAverageHighLow
Temperature79.1 °F84.6 °F (11:55 am)76.8 °F (6:55 am)
Dewpoint72.8 °F75.2 °F (9:38 am)69.1 °F (11:55 am)
Humidity81.3 %90 % (6:55 am)60 % (11:55 am)
Barometer29.89 in29.95 in (8:55 am)29.82 in (3:55 pm)
Wind Speed16.3 mph21.9 mph (9:01 am)
Wind Gust27.6 mph (9:47 am)
Weather ElementAverage
Visibility10 mi
Wind DirectionENE (72.6 °)

Weather ElementTotal
Precipitation---
Cooling Degree Days15.7 (Base 65)
Growing Degree Days30.7 (Base 50)
Averaged from 93 records on March 30, 2013
WEATHER CONDITIONS BREAKOUT
WIND DIRECTION BREAKOUT
WEATHER BY HOUR - MARCH 30, 2013
[ °C ]   °F
Local TimeTemperatureDewpointHumidityBarometerVisibilityWind DirectionWind SpeedGust SpeedPrecipitationEventsConditions
12:25 AM77.0 °F73.4 °F89 %29.90 in9.0 miEast (80°)16.1 mph21.9 mphMostly Cloudy
12:34 AM77.0 °F71.6 °F83 %29.90 in10.0 miEast (80°)13.8 mph21.9 mphScattered Clouds
12:55 AM77.2 °F72.9 °F86 %29.90 in10.0 miEast (80°)10.4 mph0.00 inPartly Cloudy
1:27 AM77.0 °F73.4 °F89 %29.89 in10.0 miEast (80°)12.7 mphMostly Cloudy
1:28 AM77.0 °F73.4 °F89 %29.89 in10.0 miEast (80°)11.5 mphScattered Clouds
1:53 AM77.0 °F73.4 °F89 %29.88 in10.0 miEast (80°)12.7 mphScattered Clouds
2:01 AM77.0 °F73.4 °F89 %29.88 in10.0 miEast (80°)11.5 mphMostly Cloudy
2:15 AM77.0 °F73.4 °F89 %29.88 in10.0 miENE (70°)13.8 mphMostly Cloudy
2:23 AM77.0 °F73.4 °F89 %29.87 in10.0 miEast (80°)13.8 mphMostly Cloudy
2:26 AM77.0 °F73.4 °F89 %29.88 in10.0 miENE (70°)11.5 mphMostly Cloudy
2:35 AM77.0 °F73.4 °F89 %29.87 in10.0 miENE (70°)12.7 mphMostly Cloudy
2:40 AM77.0 °F73.4 °F89 %29.87 in10.0 miENE (70°)15.0 mphMostly Cloudy
2:52 AM77.0 °F73.4 °F89 %29.87 in10.0 miENE (70°)12.7 mphMostly Cloudy
2:55 AM77.2 °F72.7 °F86 %29.87 in10.0 miEast (80°)10.4 mphMostly Cloudy
2:59 AM77.0 °F73.4 °F89 %29.86 in10.0 miEast (90°)13.8 mphScattered Clouds
3:00 AM77.0 °F73.4 °F89 %29.86 in10.0 miEast (90°)15.0 mphRainLight Rain
3:06 AM77.0 °F73.4 °F89 %29.86 in10.0 miENE (70°)15.0 mphRainLight Rain
3:09 AM77.0 °F73.4 °F89 %29.86 in10.0 miEast (80°)15.0 mphScattered Clouds
3:43 AM77.0 °F73.4 °F89 %29.86 in10.0 miEast (80°)11.5 mphMostly Cloudy
3:55 AM77.5 °F72.3 °F84 %29.86 in10.0 miEast (80°)11.5 mph0.00 inMostly Cloudy
4:35 AM77.0 °F73.4 °F89 %29.86 in10.0 miEast (80°)13.8 mphScattered Clouds
4:48 AM77.0 °F73.4 °F89 %29.87 in10.0 miENE (70°)15.0 mphMostly Cloudy
4:55 AM77.0 °F73.2 °F88 %29.87 in10.0 miEast (80°)12.7 mphMostly Cloudy
5:17 AM77.0 °F73.4 °F89 %29.88 in10.0 miEast (80°)13.8 mph20.7 mphScattered Clouds
5:18 AM77.0 °F73.4 °F89 %29.88 in10.0 miEast (80°)15.0 mph20.7 mphMostly Cloudy
5:20 AM77.0 °F73.4 °F89 %29.88 in10.0 miEast (90°)13.8 mph20.7 mphScattered Clouds
5:49 AM77.0 °F73.4 °F89 %29.89 in10.0 miEast (80°)17.3 mphMostly Cloudy
5:55 AM77.0 °F72.7 °F86 %29.89 in10.0 miEast (80°)13.8 mphMostly Cloudy
5:59 AM77.0 °F73.4 °F89 %29.89 in10.0 miEast (90°)15.0 mphMostly Cloudy
6:44 AM77.0 °F73.4 °F89 %29.91 in10.0 miENE (70°)16.1 mphMostly Cloudy
6:55 AM76.8 °F73.6 °F90 %29.91 in10.0 miENE (60°)18.4 mphMostly Cloudy
7:02 AM77.0 °F73.4 °F89 %29.92 in10.0 miENE (60°)15.0 mphMostly Cloudy
7:06 AM77.0 °F73.4 °F89 %29.92 in10.0 miENE (60°)13.8 mphMostly Cloudy
7:07 AM77.0 °F73.4 °F89 %29.92 in10.0 miENE (60°)15.0 mphMostly Cloudy
7:19 AM77.0 °F73.4 °F89 %29.93 in10.0 miENE (60°)15.0 mphMostly Cloudy
7:22 AM77.0 °F73.4 °F89 %29.93 in10.0 miENE (60°)13.8 mphMostly Cloudy
7:23 AM77.0 °F73.4 °F89 %29.93 in10.0 miENE (60°)12.7 mphMostly Cloudy
7:25 AM77.0 °F73.4 °F89 %29.93 in10.0 miENE (60°)13.8 mphMostly Cloudy
7:55 AM78.6 °F73.9 °F85 %29.93 in10.0 miENE (70°)12.7 mphScattered Clouds
8:55 AM80.6 °F72.1 °F75 %29.95 in10.0 miENE (70°)17.3 mphMostly Cloudy
9:01 AM80.6 °F71.6 °F74 %29.95 in10.0 miENE (70°)21.9 mphMostly Cloudy
9:10 AM82.4 °F71.6 °F70 %29.94 in10.0 miENE (70°)20.7 mphMostly Cloudy
9:38 AM82.4 °F75.2 °F79 %29.94 in10.0 miENE (70°)18.4 mph25.3 mphMostly Cloudy
9:47 AM82.4 °F71.6 °F70 %29.94 in10.0 miENE (70°)18.4 mph27.6 mphScattered Clouds
9:55 AM83.5 °F72.9 °F70 %29.94 in10.0 miEast (80°)18.4 mphScattered Clouds
10:03 AM82.4 °F73.4 °F74 %29.94 in10.0 miEast (80°)16.1 mphMostly Cloudy
10:06 AM82.4 °F73.4 °F74 %29.94 in10.0 miEast (80°)18.4 mph24.2 mphScattered Clouds
10:17 AM82.4 °F73.4 °F74 %29.93 in10.0 miENE (70°)20.7 mphMostly Cloudy
10:34 AM82.4 °F71.6 °F70 %29.93 in10.0 miENE (70°)20.7 mphScattered Clouds
10:48 AM82.4 °F73.4 °F74 %29.93 in10.0 miENE (70°)18.4 mphMostly Cloudy
10:50 AM82.4 °F73.4 °F74 %29.93 in10.0 miENE (70°)19.6 mphScattered Clouds
10:55 AM83.8 °F73.6 °F71 %29.93 in10.0 miENE (70°)17.3 mphScattered Clouds
11:55 AM84.6 °F69.1 °F60 %29.90 in10.0 miEast (80°)19.6 mphPartly Cloudy
12:55 PM84.6 °F69.8 °F61 %29.88 in10.0 miEast (90°)17.3 mph25.3 mphScattered Clouds
1:55 PM84.0 °F71.8 °F66 %29.85 in10.0 miENE (70°)18.4 mphScattered Clouds
2:03 PM84.2 °F71.6 °F66 %29.85 in10.0 miENE (70°)19.6 mphMostly Cloudy
2:34 PM84.2 °F71.6 °F66 %29.84 in10.0 miEast (80°)18.4 mphScattered Clouds
2:55 PM83.7 °F72.5 °F69 %29.83 in10.0 miENE (70°)16.1 mphScattered Clouds
3:14 PM84.2 °F71.6 °F66 %29.83 in10.0 miENE (60°)17.3 mph24.2 mphMostly Cloudy
3:27 PM84.2 °F71.6 °F66 %29.83 in10.0 miENE (70°)19.6 mphScattered Clouds
3:55 PM82.9 °F71.4 °F68 %29.82 in10.0 miENE (60°)15.0 mph24.2 mphScattered Clouds
4:55 PM81.7 °F72.0 °F72 %29.82 in10.0 miENE (60°)17.3 mphScattered Clouds
4:59 PM80.6 °F71.6 °F74 %29.82 in10.0 miENE (60°)20.7 mph27.6 mphMostly Cloudy
5:03 PM80.6 °F71.6 °F74 %29.82 in10.0 miENE (60°)19.6 mph27.6 mphScattered Clouds
5:54 PM78.8 °F71.6 °F78 %29.83 in10.0 miENE (60°)18.4 mphMostly Cloudy
5:55 PM79.5 °F71.2 °F76 %29.83 in10.0 miENE (60°)18.4 mphMostly Cloudy
6:26 PM78.8 °F71.6 °F78 %29.84 in10.0 miENE (70°)17.3 mphScattered Clouds
6:55 PM78.3 °F71.2 °F79 %29.85 in10.0 miENE (60°)17.3 mph24.2 mphScattered Clouds
7:14 PM78.8 °F71.6 °F78 %29.85 in10.0 miENE (70°)16.1 mphMostly Cloudy
7:55 PM78.6 °F72.7 °F82 %29.86 in10.0 miENE (60°)17.3 mph25.3 mphMostly Cloudy
8:07 PM78.8 °F71.6 °F78 %29.87 in10.0 miENE (70°)16.1 mphScattered Clouds
8:18 PM78.8 °F71.6 °F78 %29.87 in10.0 miENE (70°)18.4 mphMostly Cloudy
8:55 PM78.6 °F73.0 °F83 %29.89 in10.0 miENE (70°)20.7 mphMostly Cloudy
9:12 PM78.8 °F73.4 °F83 %29.89 in10.0 miEast (80°)19.6 mph26.5 mphScattered Clouds
9:15 PM78.8 °F73.4 °F83 %29.89 in10.0 miENE (70°)18.4 mph26.5 mphMostly Cloudy
9:48 PM78.8 °F71.6 °F78 %29.90 in10.0 miEast (80°)19.6 mphScattered Clouds
9:55 PM78.6 °F72.7 °F82 %29.90 in10.0 miEast (80°)17.3 mphScattered Clouds
10:14 PM78.8 °F73.4 °F83 %29.91 in10.0 miENE (70°)19.6 mph24.2 mphMostly Cloudy
10:19 PM78.8 °F73.4 °F83 %29.91 in10.0 miEast (80°)17.3 mphMostly Cloudy
10:20 PM78.8 °F71.6 °F78 %29.91 in10.0 miEast (80°)16.1 mphMostly Cloudy
10:21 PM78.8 °F73.4 °F83 %29.91 in10.0 miEast (80°)16.1 mph24.2 mphScattered Clouds
10:22 PM78.8 °F73.4 °F83 %29.91 in10.0 miENE (70°)16.1 mph24.2 mphMostly Cloudy
10:23 PM78.8 °F73.4 °F83 %29.91 in10.0 miENE (70°)18.4 mphMostly Cloudy
10:30 PM78.8 °F73.4 °F83 %29.91 in10.0 miENE (70°)20.7 mphMostly Cloudy
10:38 PM78.8 °F71.6 °F78 %29.91 in10.0 miENE (70°)19.6 mphScattered Clouds
10:55 PM78.4 °F73.4 °F84 %29.91 in10.0 miENE (70°)18.4 mphScattered Clouds
11:19 PM78.8 °F73.4 °F83 %29.91 in10.0 miENE (70°)13.8 mphMostly Cloudy
11:35 PM78.8 °F73.4 °F83 %29.91 in10.0 miENE (70°)18.4 mphMostly Cloudy
11:37 PM78.8 °F73.4 °F83 %29.91 in10.0 miENE (70°)19.6 mphMostly Cloudy
11:43 PM78.8 °F73.4 °F83 %29.91 in10.0 miENE (70°)16.1 mphScattered Clouds
11:48 PM78.8 °F73.4 °F83 %29.91 in10.0 miENE (70°)15.0 mphMostly Cloudy
11:50 PM78.8 °F73.4 °F83 %29.91 in10.0 miEast (80°)17.3 mphScattered Clouds
11:55 PM78.3 °F73.2 °F84 %29.91 in10.0 miEast (80°)17.3 mphScattered Clouds
Hourly data recorded from PGUA, located miles away from Mangilao, Guam







STORIES FROM OUR PARTNERS